START_TIME,STEP,MOV.,M34,t_acc.,L5,t_acc.,L18,t_acc.,L14,t_acc.
1979-03-01 09:00:14.150 ,6,1,0.,12.0,22.,12.0,0.,12.0,0.,12.0
1979-03-01 09:00:26.150 ,6,1,0.,12.0,3.,12.0,0.,12.0,0.,12.0
1979-03-01 09:00:38.150 ,5,1,0.,12.0,0.,12.0,0.,12.0,0.,12.0
1979-03-01 09:00:50.150 ,5,1,0.,12.0,0.,12.0,0.,12.0,0.,12.0
1979-03-01 09:01:02.150 ,4,1,0.,12.0,1.,12.0,0.,12.0,0.,12.0
1979-03-01 09:01:14.150 ,4,1,0.,12.0,0.,12.0,0.,12.0,0.,12.0
1979-03-01 09:01:26.150 ,3,1,0.,12.0,1.,12.0,0.,12.0,0.,12.0
1979-03-01 09:01:38.150 ,3,1,0.,12.0,0.,12.0,0.,12.0,0.,12.0
1979-03-01 09:01:50.150 ,2,1,0.,12.0,0.,12.0,0.,12.0,0.,12.0
1979-03-01 09:02:02.150 ,2,1,0.,12.0,0.,12.0,0.,12.0,0.,12.0
1979-03-01 09:02:14.150 ,1,1,0.,12.0,0.,12.0,0.,12.0,0.,12.0
1979-03-01 09:02:26.150 ,1,1,0.,12.0,1.,12.0,0.,12.0,0.,12.0
1979-03-01 09:02:38.150 ,0,1,0.,12.0,0.,12.0,0.,12.0,0.,12.0
1979-03-01 09:02:50.150 ,0,1,0.,12.0,1.,12.0,0.,12.0,0.,12.0
1979-03-01 09:03:02.150 ,0,1,0.,12.0,0.,12.0,0.,12.0,0.,12.0
1979-03-01 09:03:14.150 ,0,1,0.,12.0,1.,12.0,0.,12.0,0.,12.0
1979-03-01 09:03:26.150 ,1,1,0.,12.0,0.,12.0,0.,12.0,0.,12.0
1979-03-01 09:03:38.150 ,1,1,0.,12.0,0.,12.0,0.,12.0,0.,12.0
1979-03-01 09:03:50.150 ,2,1,0.,12.0,1.,12.0,0.,12.0,0.,12.0
1979-03-01 09:04:02.150 ,2,1,0.,12.0,1.,12.0,0.,12.0,0.,12.0
1979-03-01 09:04:14.150 ,3,1,0.,12.0,0.,12.0,0.,12.0,0.,12.0
1979-03-01 09:04:26.150 ,3,1,0.,12.0,0.,12.0,0.,12.0,0.,12.0
1979-03-01 09:04:38.150 ,4,1,0.,12.0,0.,12.0,0.,12.0,0.,12.0
1979-03-01 09:04:50.150 ,4,1,0.,12.0,0.,12.0,0.,12.0,0.,12.0
1979-03-01 09:05:02.150 ,5,1,0.,12.0,0.,12.0,0.,12.0,0.,12.0
1979-03-01 09:05:14.150 ,5,1,0.,12.0,0.,12.0,0.,12.0,0.,12.0
1979-03-01 09:05:26.150 ,6,1,0.,12.0,2.,12.0,0.,12.0,0.,12.0
1979-03-01 09:05:38.150 ,6,1,0.,12.0,0.,12.0,0.,12.0,0.,12.0
1979-03-01 09:05:50.150 ,7,1,0.,12.0,1.,12.0,0.,12.0,0.,12.0
1979-03-01 09:06:02.150 ,7,1,0.,12.0,12.,12.0,0.,12.0,0.,12.0
1979-03-01 09:06:14.150 ,7,1,0.,12.0,15.,12.0,0.,12.0,0.,12.0
1979-03-01 09:06:26.150 ,7,1,0.,12.0,17.,12.0,0.,12.0,0.,12.0
1979-03-01 09:06:38.150 ,6,1,0.,12.0,23.,12.0,0.,12.0,0.,12.0
1979-03-01 09:06:50.150 ,6,1,0.,12.0,9.,12.0,0.,12.0,0.,12.0
1979-03-01 09:07:02.150 ,5,1,0.,12.0,0.,12.0,0.,12.0,0.,12.0
1979-03-01 09:07:14.150 ,5,1,0.,12.0,0.,12.0,0.,12.0,0.,12.0
1979-03-01 09:07:26.150 ,4,1,0.,12.0,0.,12.0,0.,12.0,0.,12.0
1979-03-01 09:07:38.150 ,4,1,0.,12.0,2.,12.0,0.,12.0,0.,12.0
1979-03-01 09:07:50.150 ,3,1,0.,12.0,2.,12.0,0.,12.0,0.,12.0
1979-03-01 09:08:02.150 ,3,1,0.,12.0,0.,12.0,0.,12.0,0.,12.0
1979-03-01 09:08:14.150 ,2,1,0.,12.0,0.,12.0,0.,12.0,0.,12.0
1979-03-01 09:08:26.150 ,2,1,0.,12.0,0.,12.0,0.,12.0,0.,12.0
1979-03-01 09:08:38.150 ,1,1,0.,12.0,1.,12.0,0.,12.0,0.,12.0
1979-03-01 09:08:50.150 ,1,1,0.,12.0,0.,12.0,0.,12.0,0.,12.0
1979-03-01 09:09:02.150 ,0,1,0.,12.0,0.,12.0,0.,12.0,0.,12.0
1979-03-01 09:09:14.150 ,0,1,0.,12.0,0.,12.0,0.,12.0,0.,12.0
1979-03-01 09:09:26.150 ,0,1,0.,12.0,0.,12.0,0.,12.0,0.,12.0
1979-03-01 09:09:38.150 ,0,1,0.,12.0,1.,12.0,0.,12.0,0.,12.0
1979-03-01 09:09:50.150 ,1,1,0.,12.0,0.,12.0,0.,12.0,0.,12.0
1979-03-01 09:10:02.150 ,1,1,0.,12.0,0.,12.0,0.,12.0,0.,12.0
1979-03-01 09:10:14.150 ,2,1,0.,12.0,0.,12.0,0.,12.0,0.,12.0
1979-03-01 09:10:26.150 ,2,1,0.,12.0,1.,12.0,0.,12.0,0.,12.0
1979-03-01 09:10:38.150 ,3,1,0.,12.0,0.,12.0,0.,12.0,0.,12.0
1979-03-01 09:10:50.150 ,3,1,0.,12.0,0.,12.0,0.,12.0,0.,12.0
1979-03-01 09:11:02.150 ,4,1,0.,12.0,1.,12.0,0.,12.0,0.,12.0
1979-03-01 09:11:14.150 ,4,1,0.,12.0,0.,12.0,0.,12.0,0.,12.0
1979-03-01 09:11:26.150 ,5,1,0.,12.0,0.,12.0,0.,12.0,0.,12.0
1979-03-01 09:11:38.150 ,5,1,0.,12.0,2.,12.0,0.,12.0,0.,12.0
1979-03-01 09:11:50.150 ,6,1,0.,12.0,0.,12.0,0.,12.0,0.,12.0
1979-03-01 09:12:02.150 ,6,1,0.,12.0,1.,12.0,0.,12.0,0.,12.0
1979-03-01 09:12:14.150 ,7,1,0.,12.0,0.,12.0,0.,12.0,0.,12.0
1979-03-01 09:12:26.150 ,7,1,0.,12.0,9.,12.0,0.,12.0,0.,12.0
1979-03-01 09:12:38.150 ,7,1,0.,12.0,19.,12.0,0.,12.0,0.,12.0
1979-03-01 09:12:50.150 ,7,1,0.,12.0,17.,12.0,0.,12.0,0.,12.0
1979-03-01 09:13:02.150 ,6,1,0.,12.0,23.,12.0,0.,12.0,0.,12.0
1979-03-01 09:13:14.150 ,6,1,0.,12.0,5.,12.0,0.,12.0,0.,12.0
1979-03-01 09:13:26.150 ,5,1,0.,12.0,1.,12.0,0.,12.0,0.,12.0
1979-03-01 09:13:38.150 ,5,1,0.,12.0,0.,12.0,0.,12.0,0.,12.0
1979-03-01 09:13:50.150 ,4,1,0.,12.0,0.,12.0,0.,12.0,0.,12.0
1979-03-01 09:14:02.150 ,4,1,0.,12.0,0.,12.0,0.,12.0,0.,12.0
1979-03-01 09:14:14.150 ,3,1,0.,12.0,0.,12.0,0.,12.0,0.,12.0
1979-03-01 09:14:26.150 ,3,1,0.,12.0,0.,12.0,0.,12.0,0.,12.0
1979-03-01 09:14:38.150 ,2,1,0.,12.0,1.,12.0,0.,12.0,0.,12.0
1979-03-01 09:14:50.150 ,2,1,0.,12.0,1.,12.0,0.,12.0,0.,12.0
1979-03-01 09:15:02.150 ,1,1,0.,12.0,0.,12.0,0.,12.0,0.,12.0
1979-03-01 09:15:14.150 ,1,1,0.,12.0,0.,12.0,0.,12.0,0.,12.0
1979-03-01 09:15:26.150 ,0,1,0.,12.0,0.,12.0,0.,12.0,0.,12.0
1979-03-01 09:15:38.150 ,0,1,0.,12.0,0.,12.0,0.,12.0,0.,12.0
1979-03-01 09:15:50.150 ,0,1,0.,12.0,0.,12.0,0.,12.0,0.,12.0
1979-03-01 09:16:02.150 ,0,1,0.,12.0,0.,12.0,0.,12.0,0.,12.0
1979-03-01 09:16:14.150 ,1,1,0.,12.0,0.,12.0,0.,12.0,0.,12.0
1979-03-01 09:16:26.150 ,1,1,0.,12.0,0.,12.0,0.,12.0,0.,12.0
1979-03-01 09:16:38.150 ,2,1,0.,12.0,0.,12.0,0.,12.0,0.,12.0
1979-03-01 09:16:50.150 ,2,1,0.,12.0,0.,12.0,0.,12.0,0.,12.0
1979-03-01 09:17:02.150 ,3,1,0.,12.0,0.,12.0,0.,12.0,0.,12.0
1979-03-01 09:17:14.150 ,3,1,0.,12.0,0.,12.0,0.,12.0,0.,12.0
1979-03-01 09:17:26.150 ,4,1,0.,12.0,1.,12.0,0.,12.0,0.,12.0
1979-03-01 09:17:38.150 ,4,1,0.,12.0,1.,12.0,0.,12.0,0.,12.0
1979-03-01 09:17:50.150 ,5,1,0.,12.0,1.,12.0,0.,12.0,0.,12.0
1979-03-01 09:18:02.150 ,5,1,0.,12.0,0.,12.0,0.,12.0,0.,12.0
1979-03-01 09:18:14.150 ,6,1,0.,12.0,1.,12.0,0.,12.0,0.,12.0
1979-03-01 09:18:26.150 ,6,1,0.,12.0,1.,12.0,0.,12.0,0.,12.0
1979-03-01 09:18:38.150 ,7,1,0.,12.0,0.,12.0,0.,12.0,0.,12.0
1979-03-01 09:18:50.150 ,7,1,0.,12.0,12.,12.0,0.,12.0,0.,12.0
1979-03-01 09:19:02.150 ,7,1,0.,12.0,9.,12.0,0.,12.0,0.,12.0
1979-03-01 09:19:14.150 ,7,1,0.,12.0,24.,12.0,0.,12.0,0.,12.0
1979-03-01 09:19:26.150 ,6,1,0.,12.0,22.,12.0,0.,12.0,0.,12.0
1979-03-01 09:19:38.150 ,6,1,0.,12.0,2.,12.0,0.,12.0,0.,12.0
1979-03-01 09:19:50.150 ,5,1,0.,12.0,0.,12.0,0.,12.0,0.,12.0
1979-03-01 09:20:02.150 ,5,1,0.,12.0,0.,12.0,0.,12.0,0.,12.0
1979-03-01 09:20:14.150 ,4,1,0.,12.0,0.,12.0,0.,12.0,0.,12.0
1979-03-01 09:20:26.150 ,4,1,0.,12.0,0.,12.0,0.,12.0,0.,12.0
1979-03-01 09:20:38.150 ,3,1,0.,12.0,1.,12.0,0.,12.0,0.,12.0
1979-03-01 09:20:50.150 ,3,1,0.,12.0,0.,12.0,0.,12.0,0.,12.0
1979-03-01 09:21:02.150 ,2,1,0.,12.0,0.,12.0,0.,12.0,0.,12.0
1979-03-01 09:21:14.150 ,2,1,0.,12.0,0.,12.0,0.,12.0,0.,12.0
1979-03-01 09:21:26.150 ,1,1,0.,12.0,1.,12.0,0.,12.0,0.,12.0
1979-03-01 09:21:38.150 ,1,1,0.,12.0,0.,12.0,0.,12.0,0.,12.0
1979-03-01 09:21:50.150 ,0,1,0.,12.0,1.,12.0,0.,12.0,0.,12.0
1979-03-01 09:22:02.150 ,0,1,0.,12.0,0.,12.0,0.,12.0,0.,12.0
1979-03-01 09:22:14.150 ,0,1,0.,12.0,0.,12.0,0.,12.0,0.,12.0
1979-03-01 09:22:26.150 ,0,1,0.,12.0,1.,12.0,0.,12.0,0.,12.0
1979-03-01 09:22:38.150 ,1,1,0.,12.0,0.,12.0,0.,12.0,0.,12.0
1979-03-01 09:22:50.150 ,1,1,0.,12.0,0.,12.0,0.,12.0,0.,12.0
1979-03-01 09:23:02.150 ,2,1,0.,12.0,0.,12.0,0.,12.0,0.,12.0
1979-03-01 09:23:14.150 ,2,1,0.,12.0,0.,12.0,0.,12.0,0.,12.0
1979-03-01 09:23:26.150 ,3,1,0.,12.0,0.,12.0,0.,12.0,0.,12.0
1979-03-01 09:23:38.150 ,3,1,0.,12.0,1.,12.0,0.,12.0,0.,12.0
1979-03-01 09:23:50.150 ,4,1,0.,12.0,1.,12.0,0.,12.0,0.,12.0
1979-03-01 09:24:02.150 ,4,1,0.,12.0,1.,12.0,0.,12.0,0.,12.0
1979-03-01 09:24:14.150 ,5,1,0.,12.0,1.,12.0,0.,12.0,0.,12.0
1979-03-01 09:24:26.150 ,5,1,0.,12.0,1.,12.0,0.,12.0,0.,12.0
1979-03-01 09:24:38.150 ,6,1,0.,12.0,0.,12.0,0.,12.0,0.,12.0
1979-03-01 09:24:50.150 ,6,1,0.,12.0,0.,12.0,0.,12.0,0.,12.0
1979-03-01 09:25:02.150 ,7,1,0.,12.0,1.,12.0,0.,12.0,0.,12.0
1979-03-01 09:25:14.150 ,7,1,0.,12.0,13.,12.0,0.,12.0,0.,12.0
1979-03-01 09:25:26.150 ,7,1,0.,12.0,25.,12.0,0.,12.0,0.,12.0
1979-03-01 09:25:38.150 ,7,1,0.,12.0,19.,12.0,0.,12.0,0.,12.0
1979-03-01 09:25:50.150 ,6,1,0.,12.0,20.,12.0,0.,12.0,0.,12.0
1979-03-01 09:26:02.150 ,6,1,0.,12.0,6.,12.0,0.,12.0,0.,12.0
1979-03-01 09:26:14.150 ,5,1,0.,12.0,0.,12.0,0.,12.0,0.,12.0
1979-03-01 09:26:26.150 ,5,1,0.,12.0,0.,12.0,0.,12.0,0.,12.0
1979-03-01 09:26:38.150 ,4,1,0.,12.0,1.,12.0,0.,12.0,0.,12.0
1979-03-01 09:26:50.150 ,4,1,0.,12.0,1.,12.0,0.,12.0,0.,12.0
1979-03-01 09:27:02.150 ,3,1,0.,12.0,0.,12.0,0.,12.0,0.,12.0
1979-03-01 09:27:14.150 ,3,1,0.,12.0,0.,12.0,0.,12.0,0.,12.0
1979-03-01 09:27:26.150 ,2,1,0.,12.0,0.,12.0,0.,12.0,0.,12.0
1979-03-01 09:27:38.150 ,2,1,0.,12.0,0.,12.0,0.,12.0,0.,12.0
1979-03-01 09:27:50.150 ,1,1,0.,12.0,0.,12.0,0.,12.0,0.,12.0
1979-03-01 09:28:02.150 ,1,1,0.,12.0,0.,12.0,0.,12.0,0.,12.0
1979-03-01 09:28:14.150 ,0,1,0.,12.0,0.,12.0,0.,12.0,0.,12.0
1979-03-01 09:28:26.150 ,0,1,0.,12.0,0.,12.0,0.,12.0,0.,12.0
1979-03-01 09:28:38.150 ,0,1,0.,12.0,2.,12.0,0.,12.0,0.,12.0
1979-03-01 09:28:50.150 ,0,1,0.,12.0,0.,12.0,0.,12.0,0.,12.0
1979-03-01 09:29:02.150 ,1,1,0.,12.0,0.,12.0,0.,12.0,0.,12.0
1979-03-01 09:29:14.150 ,1,1,0.,12.0,0.,12.0,0.,12.0,0.,12.0
1979-03-01 09:29:26.150 ,2,1,0.,12.0,0.,12.0,0.,12.0,0.,12.0
1979-03-01 09:29:38.150 ,2,1,0.,12.0,0.,12.0,0.,12.0,0.,12.0
1979-03-01 09:29:50.150 ,3,1,0.,12.0,0.,12.0,0.,12.0,0.,12.0
1979-03-01 09:30:02.150 ,3,1,0.,12.0,0.,12.0,0.,12.0,0.,12.0
1979-03-01 09:30:14.150 ,4,1,0.,12.0,0.,12.0,0.,12.0,0.,12.0
1979-03-01 09:30:26.150 ,4,1,0.,12.0,0.,12.0,0.,12.0,0.,12.0
1979-03-01 09:30:38.150 ,5,1,0.,12.0,0.,12.0,0.,12.0,0.,12.0
1979-03-01 09:30:50.150 ,5,1,0.,12.0,0.,12.0,0.,12.0,0.,12.0
1979-03-01 09:31:02.150 ,6,1,0.,12.0,0.,12.0,0.,12.0,0.,12.0
1979-03-01 09:31:14.150 ,6,1,0.,12.0,1.,12.0,0.,12.0,0.,12.0
1979-03-01 09:31:26.150 ,7,1,0.,12.0,0.,12.0,0.,12.0,0.,12.0
1979-03-01 09:31:38.150 ,7,1,0.,12.0,20.,12.0,0.,12.0,0.,12.0
1979-03-01 09:31:50.150 ,7,1,0.,12.0,16.,12.0,0.,12.0,0.,12.0
1979-03-01 09:32:02.150 ,7,1,0.,12.0,16.,12.0,0.,12.0,0.,12.0
1979-03-01 09:32:14.150 ,6,1,0.,12.0,25.,12.0,0.,12.0,0.,12.0
1979-03-01 09:32:26.150 ,6,1,0.,12.0,7.,12.0,0.,12.0,0.,12.0
1979-03-01 09:32:38.150 ,5,1,0.,12.0,0.,12.0,0.,12.0,0.,12.0
1979-03-01 09:32:50.150 ,5,1,0.,12.0,1.,12.0,0.,12.0,0.,12.0
1979-03-01 09:33:02.150 ,4,1,0.,12.0,1.,12.0,0.,12.0,0.,12.0
1979-03-01 09:33:14.150 ,4,1,0.,12.0,2.,12.0,0.,12.0,0.,12.0
1979-03-01 09:33:26.150 ,3,1,0.,12.0,0.,12.0,0.,12.0,0.,12.0
1979-03-01 09:33:38.150 ,3,1,0.,12.0,0.,12.0,0.,12.0,0.,12.0
1979-03-01 09:33:50.150 ,2,1,0.,12.0,0.,12.0,0.,12.0,0.,12.0
1979-03-01 09:34:02.150 ,2,1,0.,12.0,0.,12.0,0.,12.0,0.,12.0
1979-03-01 09:34:14.150 ,1,1,0.,12.0,0.,12.0,0.,12.0,0.,12.0
1979-03-01 09:34:26.150 ,1,1,0.,12.0,0.,12.0,0.,12.0,0.,12.0
1979-03-01 09:34:38.150 ,0,1,0.,12.0,0.,12.0,0.,12.0,0.,12.0
1979-03-01 09:34:50.150 ,0,1,0.,12.0,0.,12.0,0.,12.0,0.,12.0
1979-03-01 09:35:02.150 ,0,1,0.,12.0,1.,12.0,0.,12.0,0.,12.0
1979-03-01 09:35:14.150 ,0,1,0.,12.0,0.,12.0,0.,12.0,0.,12.0
1979-03-01 09:35:26.150 ,1,1,0.,12.0,1.,12.0,0.,12.0,0.,12.0
1979-03-01 09:35:38.150 ,1,1,0.,12.0,0.,12.0,0.,12.0,0.,12.0
1979-03-01 09:35:50.150 ,2,1,0.,12.0,0.,12.0,0.,12.0,0.,12.0
1979-03-01 09:36:02.150 ,2,1,0.,12.0,0.,12.0,0.,12.0,0.,12.0
1979-03-01 09:36:14.150 ,3,1,0.,12.0,2.,12.0,0.,12.0,0.,12.0
1979-03-01 09:36:26.150 ,3,1,0.,12.0,1.,12.0,0.,12.0,0.,12.0
1979-03-01 09:36:38.150 ,4,1,0.,12.0,1.,12.0,0.,12.0,0.,12.0
1979-03-01 09:36:50.150 ,4,1,0.,12.0,0.,12.0,0.,12.0,0.,12.0
1979-03-01 09:37:02.150 ,5,1,0.,12.0,1.,12.0,0.,12.0,0.,12.0
1979-03-01 09:37:14.150 ,5,1,0.,12.0,0.,12.0,0.,12.0,0.,12.0
1979-03-01 09:37:26.150 ,6,1,0.,12.0,0.,12.0,0.,12.0,0.,12.0
1979-03-01 09:37:38.150 ,6,1,0.,12.0,0.,12.0,0.,12.0,0.,12.0
1979-03-01 09:37:50.150 ,7,1,0.,12.0,3.,12.0,0.,12.0,0.,12.0
1979-03-01 09:38:02.150 ,7,1,0.,12.0,8.,12.0,0.,12.0,0.,12.0
1979-03-01 09:38:14.150 ,7,1,0.,12.0,24.,12.0,0.,12.0,0.,12.0
1979-03-01 09:38:26.150 ,7,1,0.,12.0,14.,12.0,0.,12.0,0.,12.0
1979-03-01 09:38:38.150 ,6,1,0.,12.0,21.,12.0,0.,12.0,0.,12.0
1979-03-01 09:38:50.150 ,6,1,0.,12.0,7.,12.0,0.,12.0,0.,12.0
1979-03-01 09:39:02.150 ,5,1,0.,12.0,0.,12.0,0.,12.0,0.,12.0
1979-03-01 09:39:14.150 ,5,1,0.,12.0,0.,12.0,0.,12.0,0.,12.0
1979-03-01 09:39:26.150 ,4,1,0.,12.0,0.,12.0,0.,12.0,0.,12.0
1979-03-01 09:39:38.150 ,4,1,0.,12.0,0.,12.0,0.,12.0,0.,12.0
1979-03-01 09:39:50.150 ,3,1,0.,12.0,0.,12.0,0.,12.0,0.,12.0
1979-03-01 09:40:02.150 ,3,1,0.,12.0,1.,12.0,0.,12.0,0.,12.0
1979-03-01 09:40:14.150 ,2,1,0.,12.0,0.,12.0,0.,12.0,0.,12.0
1979-03-01 09:40:26.150 ,2,1,0.,12.0,0.,12.0,0.,12.0,0.,12.0
1979-03-01 09:40:38.150 ,1,1,0.,12.0,0.,12.0,0.,12.0,0.,12.0
1979-03-01 09:40:50.150 ,1,1,0.,12.0,0.,12.0,0.,12.0,0.,12.0
1979-03-01 09:41:02.150 ,0,1,0.,12.0,0.,12.0,0.,12.0,0.,12.0
1979-03-01 09:41:14.150 ,0,1,0.,12.0,0.,12.0,0.,12.0,0.,12.0
1979-03-01 09:41:26.150 ,0,1,0.,12.0,0.,12.0,0.,12.0,0.,12.0
1979-03-01 09:41:38.150 ,0,1,0.,12.0,0.,12.0,0.,12.0,0.,12.0
1979-03-01 09:41:50.150 ,1,1,0.,12.0,0.,12.0,0.,12.0,0.,12.0
1979-03-01 09:42:02.150 ,1,1,0.,12.0,0.,12.0,0.,12.0,0.,12.0
1979-03-01 09:42:14.150 ,2,1,0.,12.0,1.,12.0,0.,12.0,0.,12.0
1979-03-01 09:42:26.150 ,2,1,0.,12.0,1.,12.0,0.,12.0,0.,12.0
1979-03-01 09:42:38.150 ,3,1,0.,12.0,1.,12.0,0.,12.0,0.,12.0
1979-03-01 09:42:50.150 ,3,1,0.,12.0,0.,12.0,0.,12.0,0.,12.0
1979-03-01 09:43:02.150 ,4,1,0.,12.0,0.,12.0,0.,12.0,0.,12.0
1979-03-01 09:43:14.150 ,4,1,0.,12.0,0.,12.0,0.,12.0,0.,12.0
1979-03-01 09:43:26.150 ,5,1,0.,12.0,2.,12.0,0.,12.0,0.,12.0
1979-03-01 09:43:38.150 ,5,1,0.,12.0,0.,12.0,0.,12.0,0.,12.0
1979-03-01 09:43:50.150 ,6,1,0.,12.0,1.,12.0,0.,12.0,0.,12.0
1979-03-01 09:44:02.150 ,6,1,0.,12.0,0.,12.0,0.,12.0,0.,12.0
1979-03-01 09:44:14.150 ,7,1,0.,12.0,0.,12.0,0.,12.0,0.,12.0
1979-03-01 09:44:26.150 ,7,1,0.,12.0,19.,12.0,0.,12.0,0.,12.0
1979-03-01 09:44:38.150 ,7,1,0.,12.0,16.,12.0,0.,12.0,0.,12.0
1979-03-01 09:44:50.150 ,7,1,0.,12.0,14.,12.0,0.,12.0,0.,12.0
1979-03-01 09:45:02.150 ,6,1,0.,12.0,10.,12.0,0.,12.0,0.,12.0
1979-03-01 09:45:14.150 ,6,1,0.,12.0,16.,12.0,0.,12.0,0.,12.0
1979-03-01 09:45:26.150 ,5,1,0.,12.0,0.,12.0,0.,12.0,0.,12.0
1979-03-01 09:45:38.150 ,5,1,0.,12.0,0.,12.0,0.,12.0,0.,12.0
1979-03-01 09:45:50.150 ,4,1,0.,12.0,0.,12.0,0.,12.0,0.,12.0
1979-03-01 09:46:02.150 ,4,1,0.,12.0,0.,12.0,0.,12.0,0.,12.0
1979-03-01 09:46:14.150 ,3,1,0.,12.0,0.,12.0,0.,12.0,0.,12.0
1979-03-01 09:46:26.150 ,3,1,0.,12.0,0.,12.0,0.,12.0,0.,12.0
1979-03-01 09:46:38.150 ,2,1,0.,12.0,0.,12.0,0.,12.0,0.,12.0
1979-03-01 09:46:50.150 ,2,1,0.,12.0,0.,12.0,0.,12.0,0.,12.0
1979-03-01 09:47:02.150 ,1,1,0.,12.0,0.,12.0,0.,12.0,0.,12.0
1979-03-01 09:47:14.150 ,1,1,0.,12.0,1.,12.0,0.,12.0,0.,12.0
1979-03-01 09:47:26.150 ,0,1,0.,12.0,0.,12.0,0.,12.0,0.,12.0
1979-03-01 09:47:38.150 ,0,1,0.,12.0,0.,12.0,0.,12.0,0.,12.0
1979-03-01 09:47:50.150 ,0,1,0.,12.0,0.,12.0,0.,12.0,0.,12.0
1979-03-01 09:48:02.150 ,0,1,0.,12.0,0.,12.0,0.,12.0,0.,12.0
1979-03-01 09:48:14.150 ,1,1,0.,12.0,2.,12.0,0.,12.0,0.,12.0
1979-03-01 09:48:26.150 ,1,1,0.,12.0,0.,12.0,0.,12.0,0.,12.0
1979-03-01 09:48:38.150 ,2,1,0.,12.0,0.,12.0,0.,12.0,0.,12.0
1979-03-01 09:48:50.150 ,2,1,0.,12.0,1.,12.0,0.,12.0,0.,12.0
1979-03-01 09:49:02.150 ,3,1,0.,12.0,0.,12.0,0.,12.0,0.,12.0
1979-03-01 09:49:14.150 ,3,1,0.,12.0,0.,12.0,0.,12.0,0.,12.0
1979-03-01 09:49:26.150 ,4,1,0.,12.0,2.,12.0,0.,12.0,0.,12.0
1979-03-01 09:49:38.150 ,4,1,0.,12.0,0.,12.0,0.,12.0,0.,12.0
1979-03-01 09:49:50.150 ,5,1,0.,12.0,0.,12.0,0.,12.0,0.,12.0
1979-03-01 09:50:02.150 ,5,1,0.,12.0,0.,12.0,0.,12.0,0.,12.0
1979-03-01 09:50:14.150 ,6,1,0.,12.0,0.,12.0,0.,12.0,0.,12.0
1979-03-01 09:50:26.150 ,6,1,0.,12.0,0.,12.0,0.,12.0,0.,12.0
1979-03-01 09:50:38.150 ,7,1,0.,12.0,1.,12.0,0.,12.0,0.,12.0
1979-03-01 09:50:50.150 ,7,1,0.,12.0,17.,12.0,0.,12.0,0.,12.0
1979-03-01 09:51:02.150 ,7,1,0.,12.0,20.,12.0,0.,12.0,0.,12.0
1979-03-01 09:51:14.150 ,7,1,0.,12.0,15.,12.0,0.,12.0,0.,12.0
1979-03-01 09:51:26.150 ,6,1,0.,12.0,22.,12.0,0.,12.0,0.,12.0
1979-03-01 09:51:38.150 ,6,1,0.,12.0,6.,12.0,0.,12.0,0.,12.0
1979-03-01 09:51:50.150 ,5,1,0.,12.0,1.,12.0,0.,12.0,0.,12.0
1979-03-01 09:52:02.150 ,5,1,0.,12.0,2.,12.0,0.,12.0,0.,12.0
1979-03-01 09:52:14.150 ,4,1,0.,12.0,1.,12.0,0.,12.0,0.,12.0
1979-03-01 09:52:26.150 ,4,1,0.,12.0,0.,12.0,0.,12.0,0.,12.0
1979-03-01 09:52:38.150 ,3,1,0.,12.0,0.,12.0,0.,12.0,0.,12.0
1979-03-01 09:52:50.150 ,3,1,0.,12.0,0.,12.0,0.,12.0,0.,12.0
1979-03-01 09:53:02.150 ,2,1,0.,12.0,0.,12.0,0.,12.0,0.,12.0
1979-03-01 09:53:14.150 ,2,1,0.,12.0,1.,12.0,0.,12.0,0.,12.0
1979-03-01 09:53:26.150 ,1,1,0.,12.0,0.,12.0,0.,12.0,0.,12.0
1979-03-01 09:53:38.150 ,1,1,0.,12.0,0.,12.0,0.,12.0,0.,12.0
1979-03-01 09:53:50.150 ,0,1,0.,12.0,0.,12.0,0.,12.0,0.,12.0
1979-03-01 09:54:02.150 ,0,1,0.,12.0,0.,12.0,0.,12.0,0.,12.0
1979-03-01 09:54:14.150 ,0,1,0.,12.0,0.,12.0,0.,12.0,0.,12.0
1979-03-01 09:54:26.150 ,0,1,0.,12.0,0.,12.0,0.,12.0,0.,12.0
1979-03-01 09:54:38.150 ,1,1,0.,12.0,0.,12.0,0.,12.0,0.,12.0
1979-03-01 09:54:50.150 ,1,1,0.,12.0,0.,12.0,0.,12.0,0.,12.0
1979-03-01 09:55:02.150 ,2,1,0.,12.0,0.,12.0,0.,12.0,0.,12.0
1979-03-01 09:55:14.150 ,2,1,0.,12.0,0.,12.0,0.,12.0,0.,12.0
1979-03-01 09:55:26.150 ,3,1,0.,12.0,0.,12.0,0.,12.0,0.,12.0
1979-03-01 09:55:38.150 ,3,1,0.,12.0,0.,12.0,0.,12.0,0.,12.0
1979-03-01 09:55:50.150 ,4,1,0.,12.0,1.,12.0,0.,12.0,0.,12.0
1979-03-01 09:56:02.150 ,4,1,0.,12.0,0.,12.0,0.,12.0,0.,12.0
1979-03-01 09:56:14.150 ,5,1,0.,12.0,0.,12.0,0.,12.0,0.,12.0
1979-03-01 09:56:26.150 ,5,1,0.,12.0,0.,12.0,0.,12.0,0.,12.0
1979-03-01 09:56:38.150 ,6,1,0.,12.0,0.,12.0,0.,12.0,0.,12.0
1979-03-01 09:56:50.150 ,6,1,0.,12.0,0.,12.0,0.,12.0,0.,12.0
1979-03-01 09:57:02.150 ,7,1,0.,12.0,0.,12.0,0.,12.0,0.,12.0
1979-03-01 09:57:14.150 ,7,1,0.,12.0,10.,12.0,0.,12.0,0.,12.0
1979-03-01 09:57:26.150 ,7,1,0.,12.0,23.,12.0,0.,12.0,0.,12.0
1979-03-01 09:57:38.150 ,7,1,0.,12.0,19.,12.0,0.,12.0,0.,12.0
1979-03-01 09:57:50.150 ,6,1,0.,12.0,12.,12.0,0.,12.0,0.,12.0
1979-03-01 09:58:02.150 ,6,1,0.,12.0,4.,12.0,0.,12.0,0.,12.0
1979-03-01 09:58:14.150 ,5,1,0.,12.0,0.,12.0,0.,12.0,0.,12.0
1979-03-01 09:58:26.150 ,5,1,0.,12.0,0.,12.0,0.,12.0,0.,12.0
1979-03-01 09:58:38.150 ,4,1,0.,12.0,0.,12.0,0.,12.0,0.,12.0
1979-03-01 09:58:50.150 ,4,1,0.,12.0,1.,12.0,0.,12.0,0.,12.0
1979-03-01 09:59:02.150 ,3,1,0.,12.0,1.,12.0,0.,12.0,0.,12.0
1979-03-01 09:59:14.150 ,3,1,0.,12.0,0.,12.0,0.,12.0,0.,12.0
1979-03-01 09:59:26.150 ,2,1,0.,12.0,0.,12.0,0.,12.0,0.,12.0
1979-03-01 09:59:38.150 ,2,1,0.,12.0,0.,12.0,0.,12.0,0.,12.0
1979-03-01 09:59:50.150 ,1,1,0.,12.0,1.,12.0,0.,12.0,0.,12.0
1979-03-01 10:00:02.150 ,1,1,0.,12.0,0.,12.0,0.,12.0,0.,12.0
1979-03-01 10:00:14.150 ,0,1,0.,12.0,0.,12.0,0.,12.0,0.,12.0
1979-03-01 10:00:26.150 ,0,1,0.,12.0,0.,12.0,0.,12.0,0.,12.0
1979-03-01 10:00:38.150 ,0,1,0.,12.0,0.,12.0,0.,12.0,0.,12.0
1979-03-01 10:00:50.150 ,0,1,0.,12.0,0.,12.0,0.,12.0,0.,12.0
1979-03-01 10:01:02.150 ,1,1,0.,12.0,0.,12.0,0.,12.0,0.,12.0
1979-03-01 10:01:14.150 ,1,1,0.,12.0,0.,12.0,0.,12.0,0.,12.0
1979-03-01 10:01:26.150 ,2,1,0.,12.0,0.,12.0,0.,12.0,0.,12.0
1979-03-01 10:01:38.150 ,2,1,0.,12.0,0.,12.0,0.,12.0,0.,12.0
1979-03-01 10:01:50.150 ,3,1,0.,12.0,0.,12.0,0.,12.0,0.,12.0
1979-03-01 10:02:02.150 ,3,1,0.,12.0,0.,12.0,0.,12.0,0.,12.0
1979-03-01 10:02:14.150 ,4,1,0.,12.0,0.,12.0,0.,12.0,0.,12.0
1979-03-01 10:02:26.150 ,4,1,0.,12.0,1.,12.0,0.,12.0,0.,12.0
1979-03-01 10:02:38.150 ,5,1,0.,12.0,1.,12.0,0.,12.0,0.,12.0
1979-03-01 10:02:50.150 ,5,1,0.,12.0,0.,12.0,0.,12.0,0.,12.0
1979-03-01 10:03:02.150 ,6,1,0.,12.0,0.,12.0,0.,12.0,0.,12.0
1979-03-01 10:03:14.150 ,6,1,0.,12.0,0.,12.0,0.,12.0,0.,12.0
1979-03-01 10:03:26.150 ,7,1,0.,12.0,0.,12.0,0.,12.0,0.,12.0
1979-03-01 10:03:38.150 ,7,1,0.,12.0,16.,12.0,0.,12.0,0.,12.0
1979-03-01 10:03:50.150 ,7,1,0.,12.0,24.,12.0,0.,12.0,0.,12.0
1979-03-01 10:04:02.150 ,7,1,0.,12.0,20.,12.0,0.,12.0,0.,12.0
1979-03-01 10:04:14.150 ,6,1,0.,12.0,13.,12.0,0.,12.0,0.,12.0
1979-03-01 10:04:26.150 ,6,1,0.,12.0,6.,12.0,0.,12.0,0.,12.0
1979-03-01 10:04:38.150 ,5,1,0.,12.0,0.,12.0,0.,12.0,0.,12.0
1979-03-01 10:04:50.150 ,5,1,0.,12.0,0.,12.0,0.,12.0,0.,12.0
1979-03-01 10:05:02.150 ,4,1,0.,12.0,0.,12.0,0.,12.0,0.,12.0
1979-03-01 10:05:14.150 ,4,1,0.,12.0,1.,12.0,0.,12.0,0.,12.0
1979-03-01 10:05:26.150 ,3,1,0.,12.0,0.,12.0,0.,12.0,0.,12.0
1979-03-01 10:05:38.150 ,3,1,0.,12.0,1.,12.0,0.,12.0,0.,12.0
1979-03-01 10:05:50.150 ,2,1,0.,12.0,0.,12.0,0.,12.0,0.,12.0
1979-03-01 10:06:02.150 ,2,1,0.,12.0,1.,12.0,0.,12.0,0.,12.0
1979-03-01 10:06:14.150 ,1,1,0.,12.0,1.,12.0,0.,12.0,0.,12.0
1979-03-01 10:06:26.150 ,1,1,0.,12.0,0.,12.0,0.,12.0,0.,12.0
1979-03-01 10:06:38.150 ,0,1,0.,12.0,0.,12.0,0.,12.0,0.,12.0
1979-03-01 10:06:50.150 ,0,1,0.,12.0,0.,12.0,0.,12.0,0.,12.0
1979-03-01 10:07:02.150 ,0,1,0.,12.0,0.,12.0,0.,12.0,0.,12.0
1979-03-01 10:07:14.150 ,0,1,0.,12.0,1.,12.0,0.,12.0,0.,12.0
1979-03-01 10:07:26.150 ,1,1,0.,12.0,0.,12.0,0.,12.0,0.,12.0
1979-03-01 10:07:38.150 ,1,1,0.,12.0,1.,12.0,0.,12.0,0.,12.0
1979-03-01 10:08:38.150 ,0,0,0.,12.0,0.,12.0,0.,12.0,0.,12.0
1979-03-01 10:08:50.150 ,0,0,0.,12.0,0.,12.0,0.,12.0,0.,12.0
1979-03-01 10:09:02.150 ,5,1,0.,12.0,1.,12.0,0.,12.0,0.,12.0
1979-03-01 10:09:14.150 ,5,1,0.,12.0,0.,12.0,0.,12.0,0.,12.0
1979-03-01 10:09:26.150 ,6,1,0.,12.0,0.,12.0,0.,12.0,0.,12.0
1979-03-01 10:09:38.150 ,6,1,0.,12.0,0.,12.0,0.,12.0,0.,12.0
1979-03-01 10:09:50.150 ,7,1,0.,12.0,1.,12.0,0.,12.0,0.,12.0
1979-03-01 10:10:02.150 ,7,1,0.,12.0,13.,12.0,0.,12.0,0.,12.0
1979-03-01 10:10:14.150 ,7,1,0.,12.0,22.,12.0,0.,12.0,0.,12.0
1979-03-01 10:10:26.150 ,7,1,0.,12.0,17.,12.0,0.,12.0,0.,12.0
1979-03-01 10:10:38.150 ,6,1,0.,12.0,25.,12.0,0.,12.0,0.,12.0
1979-03-01 10:10:50.150 ,6,1,0.,12.0,4.,12.0,0.,12.0,0.,12.0
1979-03-01 10:11:02.150 ,5,1,0.,12.0,2.,12.0,0.,12.0,0.,12.0
1979-03-01 10:11:14.150 ,5,1,0.,12.0,0.,12.0,0.,12.0,0.,12.0
1979-03-01 10:11:26.150 ,4,1,0.,12.0,1.,12.0,0.,12.0,0.,12.0
1979-03-01 10:11:38.150 ,4,1,0.,12.0,0.,12.0,0.,12.0,0.,12.0
1979-03-01 10:11:50.150 ,3,1,0.,12.0,0.,12.0,0.,12.0,0.,12.0
1979-03-01 10:12:02.150 ,3,1,0.,12.0,1.,12.0,0.,12.0,0.,12.0
1979-03-01 10:12:14.150 ,2,1,0.,12.0,0.,12.0,0.,12.0,0.,12.0
1979-03-01 10:12:26.150 ,2,1,0.,12.0,1.,12.0,0.,12.0,0.,12.0
1979-03-01 10:12:38.150 ,1,1,0.,12.0,0.,12.0,0.,12.0,0.,12.0
1979-03-01 10:12:50.150 ,1,1,0.,12.0,0.,12.0,0.,12.0,0.,12.0
1979-03-01 10:13:02.150 ,0,1,0.,12.0,0.,12.0,0.,12.0,0.,12.0
1979-03-01 10:13:14.150 ,0,1,0.,12.0,0.,12.0,0.,12.0,0.,12.0
1979-03-01 10:13:26.150 ,0,1,0.,12.0,0.,12.0,0.,12.0,0.,12.0
1979-03-01 10:13:38.150 ,0,1,0.,12.0,2.,12.0,0.,12.0,0.,12.0
1979-03-01 10:13:50.150 ,1,1,0.,12.0,0.,12.0,0.,12.0,0.,12.0
1979-03-01 10:14:02.150 ,1,1,0.,12.0,0.,12.0,0.,12.0,0.,12.0
1979-03-01 10:14:14.150 ,2,1,0.,12.0,0.,12.0,0.,12.0,0.,12.0
1979-03-01 10:14:26.150 ,2,1,0.,12.0,0.,12.0,0.,12.0,0.,12.0
1979-03-01 10:14:38.150 ,3,1,0.,12.0,0.,12.0,0.,12.0,0.,12.0
1979-03-01 10:14:50.150 ,3,1,0.,12.0,1.,12.0,0.,12.0,0.,12.0
1979-03-01 10:15:02.150 ,4,1,0.,12.0,0.,12.0,0.,12.0,0.,12.0
1979-03-01 10:15:14.150 ,4,1,0.,12.0,1.,12.0,0.,12.0,0.,12.0
1979-03-01 10:15:26.150 ,5,1,0.,12.0,0.,12.0,0.,12.0,0.,12.0
1979-03-01 10:15:38.150 ,5,1,0.,12.0,0.,12.0,0.,12.0,0.,12.0
1979-03-01 10:15:50.150 ,6,1,0.,12.0,0.,12.0,0.,12.0,0.,12.0
1979-03-01 10:16:02.150 ,6,1,0.,12.0,0.,12.0,0.,12.0,0.,12.0
1979-03-01 10:16:14.150 ,7,1,0.,12.0,0.,12.0,0.,12.0,0.,12.0
1979-03-01 10:16:26.150 ,7,1,0.,12.0,8.,12.0,0.,12.0,0.,12.0
1979-03-01 10:16:38.150 ,7,1,0.,12.0,16.,12.0,0.,12.0,0.,12.0
1979-03-01 10:16:50.150 ,7,1,0.,12.0,16.,12.0,0.,12.0,0.,12.0
1979-03-01 10:17:02.150 ,6,1,0.,12.0,25.,12.0,0.,12.0,0.,12.0
1979-03-01 10:17:14.150 ,6,1,0.,12.0,15.,12.0,0.,12.0,0.,12.0
1979-03-01 10:17:26.150 ,5,1,0.,12.0,1.,12.0,0.,12.0,0.,12.0
1979-03-01 10:17:38.150 ,5,1,0.,12.0,0.,12.0,0.,12.0,0.,12.0
1979-03-01 10:17:50.150 ,4,1,0.,12.0,0.,12.0,0.,12.0,0.,12.0